User: anonymous   Login
Location: Fort Wayne
(41.1310°N, 85.1290°W)
Time: 07:22:53
(UTC-04:00)
Language:

Iridium 37 - Orbit

View from above orbital plane
View from above orbital plane
View from above satellite
View from above satellite

Ground track
Ground track

The orbit data is extracted from the following two-line orbital elements,

1 24968U 97056D   17117.73685820 +.00000120 +00000-0 +35645-4 0  9992
2 24968 086.3961 339.9844 0002074 085.8592 274.2841 14.34222860025090
Epoch (UTC): 27 April 2017 17:41:04
Eccentricity: 0.0002074
inclination: 86.3961°
perigee height: 776 km
apogee height: 779 km
right ascension of ascending node: 339.9844°
argument of perigee: 85.8592°
revolutions per day: 14.34222860
mean anomaly at epoch: 274.2841°
orbit number at epoch: 2509

The dashed part of the orbit path shows where the satellite is in the earth's shadow,  

DLR